Station Historical Data
Daily Summary for September 17, 2017 Units:  English    Metric   Both
Next Day »
Daily Weekly Monthly Yearly Custom
  High: Low: Average:
Temperature: 78.1 °F 59.1 °F 66.5 °F
Dew Point: 50.5 °F 42.2 °F 46.3 °F
Humidity: 62% 28% 49%
Wind Speed: 14.0mph 0.0mph 2.9mph
Wind Gust: 18.0mph - -
Wind- - SE
Pressure: 29.96 in 29.89 in -
Precipitation: 0.00 in    
Historical Graphs
 
 
Tabular Data for September 17, 2017
Time Temperature Dew Point Pressure Wind Wind Speed Wind Gust Humidity Rainfall Rate (Hourly) solar Conditions
00:03 62.5 °F 49.3 °F 29.90 in East 6.0 mph 6.0 mph 62% 0.00 in 0.00 W/m2
00:08 62.5 °F 49.3 °F 29.90 in East 4.0 mph 9.0 mph 62% 0.00 in 0.00 W/m2
00:13 62.4 °F 48.8 °F 29.90 in East 4.0 mph 9.0 mph 61% 0.00 in 0.00 W/m2
00:18 62.3 °F 48.7 °F 29.89 in East 5.0 mph 9.0 mph 61% 0.00 in 0.00 W/m2
00:23 62.2 °F 48.6 °F 29.89 in East 2.0 mph 9.0 mph 61% 0.00 in 0.00 W/m2
00:28 62.2 °F 48.6 °F 29.89 in East 6.0 mph 11.0 mph 61% 0.00 in 0.00 W/m2
00:33 62.1 °F 48.5 °F 29.90 in ESE 1.0 mph 12.0 mph 61% 0.00 in 0.00 W/m2
00:38 62.1 °F 48.5 °F 29.90 in East 5.0 mph 8.0 mph 61% 0.00 in 0.00 W/m2
00:43 62.0 °F 48.0 °F 29.90 in East 8.0 mph 8.0 mph 60% 0.00 in 0.00 W/m2
00:48 62.0 °F 48.0 °F 29.90 in East 6.0 mph 9.0 mph 60% 0.00 in 0.00 W/m2
00:53 62.0 °F 48.0 °F 29.90 in East 5.0 mph 7.0 mph 60% 0.00 in 0.00 W/m2
00:58 61.9 °F 47.9 °F 29.90 in East 2.0 mph 8.0 mph 60% 0.00 in 0.00 W/m2
01:03 61.9 °F 48.3 °F 29.90 in East 2.0 mph 9.0 mph 61% 0.00 in 0.00 W/m2
01:08 61.8 °F 47.8 °F 29.90 in Calm   6.0 mph 60% 0.00 in 0.00 W/m2
01:13 61.6 °F 48.0 °F 29.90 in Calm   2.0 mph 61% 0.00 in 0.00 W/m2
01:18 61.5 °F 47.9 °F 29.90 in East 2.0 mph 5.0 mph 61% 0.00 in 0.00 W/m2
01:23 61.4 °F 47.8 °F 29.90 in East 4.0 mph 6.0 mph 61% 0.00 in 0.00 W/m2
01:28 61.3 °F 47.8 °F 29.89 in East 5.0 mph 7.0 mph 61% 0.00 in 0.00 W/m2
01:33 61.2 °F 47.2 °F 29.89 in East 7.0 mph 9.0 mph 60% 0.00 in 0.00 W/m2
01:38 61.1 °F 47.1 °F 29.89 in East 9.0 mph 9.0 mph 60% 0.00 in 0.00 W/m2
01:43 61.0 °F 47.0 °F 29.89 in East 5.0 mph 8.0 mph 60% 0.00 in 0.00 W/m2
01:48 60.9 °F 46.9 °F 29.89 in East 2.0 mph 9.0 mph 60% 0.00 in 0.00 W/m2
01:53 60.8 °F 46.8 °F 29.90 in East 2.0 mph 9.0 mph 60% 0.00 in 0.00 W/m2
01:58 60.7 °F 46.8 °F 29.89 in East 5.0 mph 8.0 mph 60% 0.00 in 0.00 W/m2
02:03 60.7 °F 46.8 °F 29.90 in East 5.0 mph 9.0 mph 60% 0.00 in 0.00 W/m2
02:08 60.6 °F 46.7 °F 29.90 in East 4.0 mph 9.0 mph 60% 0.00 in 0.00 W/m2
02:13 60.5 °F 46.6 °F 29.90 in East 6.0 mph 11.0 mph 60% 0.00 in 0.00 W/m2
02:18 60.4 °F 46.5 °F 29.90 in East 6.0 mph 8.0 mph 60% 0.00 in 0.00 W/m2
02:23 60.2 °F 46.3 °F 29.90 in East 5.0 mph 9.0 mph 60% 0.00 in 0.00 W/m2
02:28 60.0 °F 46.1 °F 29.90 in Calm   9.0 mph 60% 0.00 in 0.00 W/m2
02:34 59.9 °F 46.0 °F 29.90 in East 4.0 mph 7.0 mph 60% 0.00 in 0.00 W/m2
02:39 59.8 °F 45.9 °F 29.91 in East 6.0 mph 6.0 mph 60% 0.00 in 0.00 W/m2
02:44 59.7 °F 45.8 °F 29.91 in East 3.0 mph 7.0 mph 60% 0.00 in 0.00 W/m2
02:49 59.7 °F 45.8 °F 29.90 in East 5.0 mph 8.0 mph 60% 0.00 in 0.00 W/m2
02:54 59.6 °F 46.2 °F 29.90 in Calm   7.0 mph 61% 0.00 in 0.00 W/m2
02:59 59.5 °F 46.1 °F 29.90 in East 5.0 mph 6.0 mph 61% 0.00 in 0.00 W/m2
03:04 59.5 °F 46.1 °F 29.91 in East 3.0 mph 7.0 mph 61% 0.00 in 0.00 W/m2
03:09 59.4 °F 46.0 °F 29.90 in East 3.0 mph 6.0 mph 61% 0.00 in 0.00 W/m2
03:14 59.3 °F 45.4 °F 29.90 in East 6.0 mph 6.0 mph 60% 0.00 in 0.00 W/m2
03:19 59.3 °F 45.4 °F 29.90 in East 5.0 mph 6.0 mph 60% 0.00 in 0.00 W/m2
03:24 59.3 °F 45.4 °F 29.90 in East 1.0 mph 7.0 mph 60% 0.00 in 0.00 W/m2
03:29 59.3 °F 45.4 °F 29.90 in Calm   7.0 mph 60% 0.00 in 0.00 W/m2
03:34 59.3 °F 45.0 °F 29.90 in East 2.0 mph 9.0 mph 59% 0.00 in 0.00 W/m2
03:40 59.3 °F 45.0 °F 29.90 in East 4.0 mph 12.0 mph 59% 0.00 in 0.00 W/m2
03:45 59.3 °F 45.0 °F 29.90 in East 1.0 mph 11.0 mph 59% 0.00 in 0.00 W/m2
03:50 59.3 °F 44.5 °F 29.89 in ESE 8.0 mph 12.0 mph 58% 0.00 in 0.00 W/m2
03:55 59.3 °F 44.5 °F 29.89 in East 4.0 mph 12.0 mph 58% 0.00 in 0.00 W/m2
04:00 59.3 °F 44.5 °F 29.89 in ESE 4.0 mph 15.0 mph 58% 0.00 in 0.00 W/m2
04:05 59.3 °F 44.5 °F 29.89 in ESE 8.0 mph 11.0 mph 58% 0.00 in 0.00 W/m2
04:10 59.2 °F 44.5 °F 29.89 in East 7.0 mph 13.0 mph 58% 0.00 in 0.00 W/m2
04:15 59.2 °F 44.9 °F 29.89 in ESE 14.0 mph 14.0 mph 59% 0.00 in 0.00 W/m2
04:20 59.2 °F 44.9 °F 29.89 in ESE 1.0 mph 16.0 mph 59% 0.00 in 0.00 W/m2
04:25 59.3 °F 45.0 °F 29.89 in ESE 8.0 mph 12.0 mph 59% 0.00 in 0.00 W/m2
04:30 59.3 °F 45.0 °F 29.89 in ESE 5.0 mph 13.0 mph 59% 0.00 in 0.00 W/m2
04:35 59.3 °F 44.5 °F 29.89 in ESE 6.0 mph 12.0 mph 58% 0.00 in 0.00 W/m2
04:40 59.2 °F 44.5 °F 29.89 in ESE 4.0 mph 11.0 mph 58% 0.00 in 0.00 W/m2
04:45 59.2 °F 44.9 °F 29.89 in ESE 6.0 mph 14.0 mph 59% 0.00 in 0.00 W/m2
04:50 59.2 °F 44.9 °F 29.89 in ESE 5.0 mph 14.0 mph 59% 0.00 in 0.00 W/m2
04:55 59.2 °F 44.9 °F 29.89 in East 5.0 mph 14.0 mph 59% 0.00 in 0.00 W/m2
05:00 59.2 °F 44.9 °F 29.89 in East 4.0 mph 11.0 mph 59% 0.00 in 0.00 W/m2
05:05 59.2 °F 44.9 °F 29.89 in ESE 2.0 mph 11.0 mph 59% 0.00 in 0.00 W/m2
05:11 59.2 °F 44.9 °F 29.89 in ESE 2.0 mph 11.0 mph 59% 0.00 in 0.00 W/m2
05:16 59.3 °F 45.0 °F 29.89 in ESE 6.0 mph 13.0 mph 59% 0.00 in 0.00 W/m2
05:21 59.3 °F 44.5 °F 29.89 in East 9.0 mph 14.0 mph 58% 0.00 in 0.00 W/m2
05:26 59.2 °F 44.0 °F 29.89 in East 5.0 mph 11.0 mph 57% 0.00 in 0.00 W/m2
05:31 59.2 °F 44.0 °F 29.89 in ESE 5.0 mph 13.0 mph 57% 0.00 in 0.00 W/m2
05:36 59.2 °F 44.0 °F 29.89 in Calm   12.0 mph 57% 0.00 in 0.00 W/m2
05:41 59.2 °F 44.0 °F 29.89 in Calm   12.0 mph 57% 0.00 in 0.00 W/m2
05:46 59.2 °F 43.5 °F 29.89 in ESE 5.0 mph 11.0 mph 56% 0.00 in 0.00 W/m2
05:51 59.2 °F 43.5 °F 29.89 in East 2.0 mph 13.0 mph 56% 0.00 in 0.00 W/m2
05:56 59.2 °F 44.0 °F 29.89 in East 5.0 mph 12.0 mph 57% 0.00 in 0.00 W/m2
06:01 59.1 °F 43.9 °F 29.90 in ESE 9.0 mph 12.0 mph 57% 0.00 in 0.00 W/m2
06:06 59.1 °F 43.9 °F 29.90 in East 4.0 mph 18.0 mph 57% 0.00 in 0.00 W/m2
06:11 59.1 °F 43.4 °F 29.90 in East 4.0 mph 4.0 mph 56% 0.00 in 0.00 W/m2
06:16 59.1 °F 43.9 °F 29.90 in East 9.0 mph 9.0 mph 57% 0.00 in 0.00 W/m2
06:21 59.1 °F 43.9 °F 29.90 in East 4.0 mph 6.0 mph 57% 0.00 in 0.00 W/m2
06:26 59.1 °F 43.9 °F 29.90 in East 2.0 mph 4.0 mph 57% 0.00 in 0.00 W/m2
06:31 59.1 °F 44.3 °F 29.90 in East 2.0 mph 2.0 mph 58% 0.00 in 0.00 W/m2
06:36 59.1 °F 44.3 °F 29.91 in East 5.0 mph 7.0 mph 58% 0.00 in 0.00 W/m2
06:41 59.1 °F 43.9 °F 29.91 in ESE 5.0 mph 7.0 mph 57% 0.00 in 0.00 W/m2
06:46 59.1 °F 43.4 °F 29.91 in East 7.0 mph 8.0 mph 56% 0.00 in 5.00 W/m2
06:51 59.1 °F 43.9 °F 29.91 in ESE 1.0 mph 2.0 mph 57% 0.00 in 9.00 W/m2
06:56 59.1 °F 43.9 °F 29.91 in ESE 5.0 mph 6.0 mph 57% 0.00 in 12.00 W/m2
07:01 59.2 °F 44.0 °F 29.91 in East 2.0 mph 7.0 mph 57% 0.00 in 16.00 W/m2
07:06 59.2 °F 44.0 °F 29.91 in ESE 11.0 mph 12.0 mph 57% 0.00 in 19.00 W/m2
07:11 59.2 °F 44.0 °F 29.91 in ESE 1.0 mph 6.0 mph 57% 0.00 in 25.00 W/m2
07:16 59.3 °F 44.1 °F 29.91 in ESE 13.0 mph 13.0 mph 57% 0.00 in 32.00 W/m2
07:21 59.3 °F 44.1 °F 29.91 in ESE 5.0 mph 5.0 mph 57% 0.00 in 37.00 W/m2
07:26 59.3 °F 44.1 °F 29.91 in ESE 9.0 mph 12.0 mph 57% 0.00 in 35.00 W/m2
07:31 59.4 °F 44.2 °F 29.91 in East 7.0 mph 11.0 mph 57% 0.00 in 65.00 W/m2
07:36 59.4 °F 43.7 °F 29.91 in ESE 5.0 mph 11.0 mph 56% 0.00 in 97.00 W/m2
07:41 59.4 °F 43.7 °F 29.91 in East 5.0 mph 9.0 mph 56% 0.00 in 114.00 W/m2
07:46 59.4 °F 44.2 °F 29.91 in ESE 12.0 mph 13.0 mph 57% 0.00 in 134.00 W/m2
07:51 59.5 °F 44.3 °F 29.91 in East 12.0 mph 18.0 mph 57% 0.00 in 155.00 W/m2
07:56 59.6 °F 44.4 °F 29.91 in ESE 5.0 mph 13.0 mph 57% 0.00 in 163.00 W/m2
08:01 59.6 °F 44.8 °F 29.91 in East 7.0 mph 11.0 mph 58% 0.00 in 156.00 W/m2
08:06 59.8 °F 45.5 °F 29.91 in East 8.0 mph 13.0 mph 59% 0.00 in 123.00 W/m2
08:11 59.9 °F 45.5 °F 29.91 in ESE 5.0 mph 13.0 mph 59% 0.00 in 202.00 W/m2
08:16 60.0 °F 45.7 °F 29.91 in East 7.0 mph 15.0 mph 59% 0.00 in 234.00 W/m2
08:21 60.2 °F 45.8 °F 29.92 in East 2.0 mph 12.0 mph 59% 0.00 in 283.00 W/m2
08:26 60.4 °F 46.0 °F 29.92 in Calm   7.0 mph 59% 0.00 in 279.00 W/m2
08:31 60.5 °F 46.1 °F 29.92 in ESE 2.0 mph 8.0 mph 59% 0.00 in 206.00 W/m2
08:36 60.7 °F 46.3 °F 29.92 in ESE 6.0 mph 8.0 mph 59% 0.00 in 207.00 W/m2
08:41 61.0 °F 46.6 °F 29.93 in East 2.0 mph 11.0 mph 59% 0.00 in 343.00 W/m2
08:46 61.1 °F 46.7 °F 29.93 in East 2.0 mph 11.0 mph 59% 0.00 in 320.00 W/m2
08:51 61.3 °F 46.9 °F 29.93 in East 2.0 mph 5.0 mph 59% 0.00 in 295.00 W/m2
08:57 61.6 °F 47.2 °F 29.93 in Calm   6.0 mph 59% 0.00 in 404.00 W/m2
09:02 61.8 °F 47.3 °F 29.94 in ESE 7.0 mph 9.0 mph 59% 0.00 in 213.00 W/m2
09:07 62.1 °F 47.2 °F 29.94 in Calm   6.0 mph 58% 0.00 in 385.00 W/m2
09:12 62.4 °F 47.5 °F 29.94 in ESE 5.0 mph 8.0 mph 58% 0.00 in 469.00 W/m2
09:17 62.7 °F 47.3 °F 29.94 in Calm   6.0 mph 57% 0.00 in 346.00 W/m2
09:22 63.1 °F 48.1 °F 29.94 in Calm   6.0 mph 58% 0.00 in 452.00 W/m2
09:27 63.4 °F 48.4 °F 29.94 in ESE 4.0 mph 9.0 mph 58% 0.00 in 160.00 W/m2
09:32 63.7 °F 48.2 °F 29.94 in Calm     57% 0.00 in 206.00 W/m2
09:37 63.9 °F 48.4 °F 29.94 in Calm   1.0 mph 57% 0.00 in 510.00 W/m2
09:42 64.1 °F 48.6 °F 29.94 in Calm   4.0 mph 57% 0.00 in 527.00 W/m2
09:47 64.3 °F 48.8 °F 29.94 in ESE 5.0 mph 8.0 mph 57% 0.00 in 543.00 W/m2
09:52 64.5 °F 48.5 °F 29.94 in Calm   5.0 mph 56% 0.00 in 550.00 W/m2
09:57 64.7 °F 48.7 °F 29.94 in Calm   5.0 mph 56% 0.00 in 589.00 W/m2
10:02 65.3 °F 48.2 °F 29.94 in Calm   1.0 mph 54% 0.00 in 397.00 W/m2
10:07 65.7 °F 48.6 °F 29.94 in Calm     54% 0.00 in 439.00 W/m2
10:12 66.1 °F 48.5 °F 29.94 in Calm     53% 0.00 in 478.00 W/m2
10:17 66.4 °F 49.3 °F 29.94 in Calm   2.0 mph 54% 0.00 in 541.00 W/m2
10:22 66.7 °F 50.0 °F 29.95 in ESE 2.0 mph 6.0 mph 55% 0.00 in 585.00 W/m2
10:27 66.9 °F 49.2 °F 29.95 in ESE 1.0 mph 6.0 mph 53% 0.00 in 629.00 W/m2
10:32 67.1 °F 49.4 °F 29.95 in Calm     53% 0.00 in 636.00 W/m2
10:37 67.6 °F 49.4 °F 29.95 in Calm   5.0 mph 52% 0.00 in 647.00 W/m2
10:42 68.0 °F 50.2 °F 29.95 in ESE 2.0 mph 5.0 mph 53% 0.00 in 650.00 W/m2
10:47 68.3 °F 50.5 °F 29.95 in Calm   5.0 mph 53% 0.00 in 663.00 W/m2
10:52 68.6 °F 49.8 °F 29.95 in Calm     51% 0.00 in 671.00 W/m2
10:57 69.1 °F 50.2 °F 29.95 in Calm     51% 0.00 in 680.00 W/m2
11:02 69.5 °F 48.4 °F 29.96 in Calm     47% 0.00 in 689.00 W/m2
11:07 70.0 °F 49.4 °F 29.96 in WSW 1.0 mph 4.0 mph 48% 0.00 in 700.00 W/m2
11:12 70.3 °F 48.0 °F 29.96 in Calm   2.0 mph 45% 0.00 in 707.00 W/m2
11:17 70.7 °F 47.7 °F 29.95 in Calm   2.0 mph 44% 0.00 in 714.00 W/m2
11:22 71.0 °F 48.6 °F 29.95 in Calm   5.0 mph 45% 0.00 in 726.00 W/m2
11:27 71.4 °F 49.0 °F 29.95 in SW 2.0 mph 6.0 mph 45% 0.00 in 728.00 W/m2
11:32 71.6 °F 48.6 °F 29.95 in Calm   1.0 mph 44% 0.00 in 738.00 W/m2
11:37 72.0 °F 49.5 °F 29.96 in Calm   1.0 mph 45% 0.00 in 744.00 W/m2
11:42 72.3 °F 49.8 °F 29.96 in Calm   3.0 mph 45% 0.00 in 747.00 W/m2
11:47 72.6 °F 49.5 °F 29.96 in WNW 1.0 mph 4.0 mph 44% 0.00 in 756.00 W/m2
11:52 72.9 °F 49.1 °F 29.96 in SW 1.0 mph 2.0 mph 43% 0.00 in 763.00 W/m2
11:57 73.3 °F 48.8 °F 29.96 in Calm   1.0 mph 42% 0.00 in 765.00 W/m2
12:02 73.6 °F 49.1 °F 29.96 in NNW 1.0 mph 6.0 mph 42% 0.00 in 772.00 W/m2
12:07 73.8 °F 48.0 °F 29.96 in Calm   1.0 mph 40% 0.00 in 773.00 W/m2
12:12 73.9 °F 47.4 °F 29.95 in NW 1.0 mph 1.0 mph 39% 0.00 in 775.00 W/m2
12:17 74.1 °F 46.9 °F 29.95 in Calm   1.0 mph 38% 0.00 in 779.00 W/m2
12:22 74.4 °F 47.2 °F 29.95 in Calm   4.0 mph 38% 0.00 in 784.00 W/m2
12:27 74.7 °F 46.0 °F 29.95 in Calm   5.0 mph 36% 0.00 in 786.00 W/m2
12:32 75.1 °F 45.6 °F 29.95 in Calm   5.0 mph 35% 0.00 in 789.00 W/m2
12:37 75.4 °F 45.1 °F 29.95 in Calm   5.0 mph 34% 0.00 in 786.00 W/m2
12:42 75.5 °F 44.4 °F 29.95 in Calm   4.0 mph 33% 0.00 in 791.00 W/m2
12:47 75.4 °F 45.1 °F 29.95 in West 4.0 mph 4.0 mph 34% 0.00 in 786.00 W/m2
12:52 75.6 °F 46.0 °F 29.95 in WSW 4.0 mph 7.0 mph 35% 0.00 in 796.00 W/m2
12:57 76.0 °F 44.8 °F 29.94 in Calm   1.0 mph 33% 0.00 in 793.00 W/m2
13:02 76.5 °F 45.3 °F 29.94 in South 5.0 mph 8.0 mph 33% 0.00 in 800.00 W/m2
13:07 76.9 °F 43.1 °F 29.94 in SSW 6.0 mph 8.0 mph 30% 0.00 in 800.00 W/m2
13:12 77.5 °F 43.7 °F 29.94 in SSE 5.0 mph 10.0 mph 30% 0.00 in 793.00 W/m2
13:17 77.9 °F 42.2 °F 29.94 in SE 5.0 mph 5.0 mph 28% 0.00 in 779.00 W/m2
13:22 77.7 °F 44.7 °F 29.94 in SW 8.0 mph 8.0 mph 31% 0.00 in 780.00 W/m2
13:27 77.6 °F 45.4 °F 29.94 in Calm   5.0 mph 32% 0.00 in 788.00 W/m2
13:33 77.8 °F 46.4 °F 29.94 in SW 6.0 mph 6.0 mph 33% 0.00 in 779.00 W/m2
13:38 78.1 °F 46.7 °F 29.94 in Calm   6.0 mph 33% 0.00 in 770.00 W/m2
13:43 78.1 °F 47.5 °F 29.94 in Calm   6.0 mph 34% 0.00 in 772.00 W/m2
13:48 77.8 °F 47.2 °F 29.94 in SW 6.0 mph 10.0 mph 34% 0.00 in 772.00 W/m2
13:53 77.8 °F 48.0 °F 29.94 in WSW 1.0 mph 7.0 mph 35% 0.00 in 759.00 W/m2
13:58 77.7 °F 47.9 °F 29.94 in Calm   6.0 mph 35% 0.00 in 756.00 W/m2
14:03 77.4 °F 46.9 °F 29.94 in Calm   10.0 mph 34% 0.00 in 754.00 W/m2
14:08 77.6 °F 47.8 °F 29.94 in SSW 5.0 mph 7.0 mph 35% 0.00 in 745.00 W/m2
14:13 77.7 °F 47.9 °F 29.93 in WSW 7.0 mph 8.0 mph 35% 0.00 in 740.00 W/m2
14:18 77.3 °F 48.3 °F 29.93 in NW 8.0 mph 9.0 mph 36% 0.00 in 735.00 W/m2
14:23 76.9 °F 47.9 °F 29.93 in Calm   11.0 mph 36% 0.00 in 722.00 W/m2
14:28 77.0 °F 48.0 °F 29.93 in Calm   9.0 mph 36% 0.00 in 715.00 W/m2
14:33 76.9 °F 48.7 °F 29.93 in WSW 3.0 mph 9.0 mph 37% 0.00 in 698.00 W/m2
14:38 77.0 °F 48.0 °F 29.93 in WSW 5.0 mph 7.0 mph 36% 0.00 in 698.00 W/m2
14:43 77.1 °F 48.8 °F 29.93 in SW 5.0 mph 10.0 mph 37% 0.00 in 696.00 W/m2
14:48 77.2 °F 48.9 °F 29.93 in Calm   13.0 mph 37% 0.00 in 677.00 W/m2
14:53 77.4 °F 48.4 °F 29.93 in Calm   8.0 mph 36% 0.00 in 668.00 W/m2
14:58 77.4 °F 49.1 °F 29.93 in SW 5.0 mph 14.0 mph 37% 0.00 in 671.00 W/m2
15:03 77.4 °F 49.1 °F 29.92 in SW 1.0 mph 10.0 mph 37% 0.00 in 656.00 W/m2
15:08 77.4 °F 49.8 °F 29.92 in WSW 8.0 mph 14.0 mph 38% 0.00 in 645.00 W/m2
15:13 77.3 °F 49.7 °F 29.92 in South 1.0 mph 2.0 mph 38% 0.00 in 629.00 W/m2
15:18 77.1 °F 48.8 °F 29.92 in West 2.0 mph 6.0 mph 37% 0.00 in 626.00 W/m2
15:23 76.9 °F 49.4 °F 29.92 in SSW 8.0 mph 15.0 mph 38% 0.00 in 613.00 W/m2
15:28 76.8 °F 49.3 °F 29.92 in Calm   6.0 mph 38% 0.00 in 601.00 W/m2
15:33 76.8 °F 49.3 °F 29.91 in Calm   6.0 mph 38% 0.00 in 591.00 W/m2
15:38 76.7 °F 48.5 °F 29.91 in South 3.0 mph 10.0 mph 37% 0.00 in 580.00 W/m2
15:43 76.7 °F 48.5 °F 29.91 in Calm   6.0 mph 37% 0.00 in 568.00 W/m2
15:48 76.7 °F 49.2 °F 29.91 in West 5.0 mph 12.0 mph 38% 0.00 in 552.00 W/m2
15:53 76.6 °F 49.1 °F 29.91 in SW 7.0 mph 11.0 mph 38% 0.00 in 540.00 W/m2
15:58 76.6 °F 49.1 °F 29.91 in WSW 6.0 mph 12.0 mph 38% 0.00 in 524.00 W/m2
16:03 76.5 °F 49.0 °F 29.91 in WSW 8.0 mph 13.0 mph 38% 0.00 in 512.00 W/m2
16:08 76.5 °F 48.3 °F 29.91 in Calm   4.0 mph 37% 0.00 in 499.00 W/m2
16:13 76.4 °F 48.2 °F 29.91 in West 5.0 mph 10.0 mph 37% 0.00 in 483.00 W/m2
16:18 76.2 °F 48.0 °F 29.91 in WSW 6.0 mph 11.0 mph 37% 0.00 in 469.00 W/m2
16:23 76.1 °F 48.0 °F 29.92 in SW 5.0 mph 5.0 mph 37% 0.00 in 454.00 W/m2
16:28 76.1 °F 47.2 °F 29.91 in SW 10.0 mph 10.0 mph 36% 0.00 in 448.00 W/m2
16:33 76.0 °F 47.9 °F 29.91 in SW 8.0 mph 12.0 mph 37% 0.00 in 425.00 W/m2
16:39 76.0 °F 47.2 °F 29.91 in Calm   5.0 mph 36% 0.00 in 415.00 W/m2
16:44 75.8 °F 47.0 °F 29.91 in Calm   6.0 mph 36% 0.00 in 397.00 W/m2
16:49 75.8 °F 47.0 °F 29.92 in SSW 6.0 mph 8.0 mph 36% 0.00 in 383.00 W/m2
16:54 75.7 °F 46.9 °F 29.92 in WSW 3.0 mph 7.0 mph 36% 0.00 in 366.00 W/m2
16:59 75.6 °F 46.0 °F 29.92 in WSW 2.0 mph 6.0 mph 35% 0.00 in 346.00 W/m2
17:04 75.5 °F 46.7 °F 29.92 in Calm   2.0 mph 36% 0.00 in 334.00 W/m2
17:09 75.3 °F 46.5 °F 29.92 in West 6.0 mph 8.0 mph 36% 0.00 in 322.00 W/m2
17:14 75.1 °F 46.3 °F 29.92 in Calm   6.0 mph 36% 0.00 in 308.00 W/m2
17:19 75.0 °F 45.5 °F 29.92 in SSW 5.0 mph 7.0 mph 35% 0.00 in 292.00 W/m2
17:24 75.0 °F 46.3 °F 29.92 in Calm   5.0 mph 36% 0.00 in 274.00 W/m2
17:29 74.9 °F 46.2 °F 29.92 in Calm   1.0 mph 36% 0.00 in 253.00 W/m2
17:34 74.8 °F 46.1 °F 29.92 in Calm   8.0 mph 36% 0.00 in 209.00 W/m2
17:39 74.7 °F 46.7 °F 29.92 in Calm   6.0 mph 37% 0.00 in 176.00 W/m2
17:44 74.6 °F 47.3 °F 29.92 in Calm   5.0 mph 38% 0.00 in 160.00 W/m2
17:49 74.5 °F 46.5 °F 29.92 in Calm   5.0 mph 37% 0.00 in 165.00 W/m2
17:54 74.3 °F 47.1 °F 29.92 in Calm   2.0 mph 38% 0.00 in 163.00 W/m2
17:59 74.1 °F 47.6 °F 29.92 in Calm   1.0 mph 39% 0.00 in 149.00 W/m2
18:00 74.1 °F 47.6 °F 29.92 in Calm   1.0 mph 39% 0.00 in 148.00 W/m2
18:05 73.9 °F 47.4 °F 29.91 in Calm   1.0 mph 39% 0.00 in 130.00 W/m2
18:10 73.7 °F 47.2 °F 29.92 in Calm   1.0 mph 39% 0.00 in 107.00 W/m2
18:15 73.5 °F 47.0 °F 29.91 in Calm   4.0 mph 39% 0.00 in 88.00 W/m2
18:20 73.3 °F 46.2 °F 29.91 in Calm   1.0 mph 38% 0.00 in 65.00 W/m2
18:25 73.1 °F 47.4 °F 29.91 in Calm     40% 0.00 in 51.00 W/m2
18:30 72.6 °F 46.9 °F 29.92 in Calm   4.0 mph 40% 0.00 in 39.00 W/m2
18:35 72.1 °F 46.5 °F 29.92 in Calm     40% 0.00 in 33.00 W/m2
18:40 71.8 °F 46.9 °F 29.92 in Calm   1.0 mph 41% 0.00 in 26.00 W/m2
18:45 71.5 °F 46.6 °F 29.92 in Calm     41% 0.00 in 21.00 W/m2
18:50 71.1 °F 46.9 °F 29.92 in Calm     42% 0.00 in 18.00 W/m2
18:55 70.8 °F 46.6 °F 29.92 in Calm   1.0 mph 42% 0.00 in 14.00 W/m2
19:00 70.6 °F 47.0 °F 29.92 in Calm     43% 0.00 in 12.00 W/m2
19:05 70.3 °F 46.8 °F 29.92 in Calm     43% 0.00 in 9.00 W/m2
19:10 69.8 °F 46.9 °F 29.92 in Calm     44% 0.00 in 5.00 W/m2
19:15 69.2 °F 46.4 °F 29.92 in Calm   1.0 mph 44% 0.00 in 0.00 W/m2
19:20 68.7 °F 45.9 °F 29.92 in Calm     44% 0.00 in 0.00 W/m2
19:25 68.2 °F 45.5 °F 29.92 in Calm   5.0 mph 44% 0.00 in 0.00 W/m2
19:30 67.7 °F 45.6 °F 29.92 in Calm   4.0 mph 45% 0.00 in 0.00 W/m2
19:35 67.4 °F 45.3 °F 29.92 in Calm   4.0 mph 45% 0.00 in 0.00 W/m2
19:40 67.1 °F 45.7 °F 29.91 in Calm     46% 0.00 in 0.00 W/m2
19:45 66.8 °F 45.4 °F 29.92 in Calm   3.0 mph 46% 0.00 in 0.00 W/m2
19:50 66.5 °F 45.1 °F 29.92 in Calm     46% 0.00 in 0.00 W/m2
19:55 66.3 °F 44.9 °F 29.92 in Calm     46% 0.00 in 0.00 W/m2
20:00 66.1 °F 45.3 °F 29.92 in Calm   4.0 mph 47% 0.00 in 0.00 W/m2
20:05 65.9 °F 45.1 °F 29.92 in Calm   3.0 mph 47% 0.00 in 0.00 W/m2
20:11 65.7 °F 44.9 °F 29.92 in Calm     47% 0.00 in 0.00 W/m2
20:17 65.5 °F 45.3 °F 29.92 in Calm     48% 0.00 in 0.00 W/m2
20:21 65.2 °F 45.0 °F 29.92 in Calm     48% 0.00 in 0.00 W/m2
20:22 65.2 °F 45.0 °F 29.92 in Calm     48% 0.00 in 0.00 W/m2
20:25 65.0 °F 44.8 °F 29.92 in SW 3.0 mph 3.0 mph 48% 0.00 in 0.00 W/m2
20:30 64.9 °F 44.8 °F 29.92 in Calm   2.0 mph 48% 0.00 in 0.00 W/m2
20:35 64.9 °F 45.3 °F 29.92 in Calm   3.0 mph 49% 0.00 in 0.00 W/m2
20:40 64.7 °F 45.1 °F 29.92 in Calm     49% 0.00 in 0.00 W/m2
20:45 64.4 °F 44.8 °F 29.92 in Calm   2.0 mph 49% 0.00 in 0.00 W/m2
20:50 64.3 °F 44.8 °F 29.92 in Calm   1.0 mph 49% 0.00 in 0.00 W/m2
20:55 64.1 °F 44.6 °F 29.92 in SW 1.0 mph 3.0 mph 49% 0.00 in 0.00 W/m2
21:00 64.1 °F 45.1 °F 29.92 in SSW 2.0 mph 4.0 mph 50% 0.00 in 0.00 W/m2
21:05 64.0 °F 45.0 °F 29.92 in Calm   3.0 mph 50% 0.00 in 0.00 W/m2
21:10 64.0 °F 45.0 °F 29.92 in Calm   4.0 mph 50% 0.00 in 0.00 W/m2
21:15 63.9 °F 44.9 °F 29.93 in Calm   5.0 mph 50% 0.00 in 0.00 W/m2
21:20 63.8 °F 44.8 °F 29.93 in SSE 1.0 mph 6.0 mph 50% 0.00 in 0.00 W/m2
21:25 63.8 °F 44.8 °F 29.93 in SE 4.0 mph 6.0 mph 50% 0.00 in 0.00 W/m2
21:30 63.7 °F 44.7 °F 29.93 in ESE 2.0 mph 9.0 mph 50% 0.00 in 0.00 W/m2
21:35 63.6 °F 44.6 °F 29.93 in ESE 2.0 mph 8.0 mph 50% 0.00 in 0.00 W/m2
21:40 63.6 °F 44.6 °F 29.92 in ESE 5.0 mph 7.0 mph 50% 0.00 in 0.00 W/m2
21:45 63.5 °F 44.5 °F 29.92 in ESE 2.0 mph 7.0 mph 50% 0.00 in 0.00 W/m2
21:50 63.5 °F 44.5 °F 29.92 in ESE 1.0 mph 7.0 mph 50% 0.00 in 0.00 W/m2
21:55 63.4 °F 45.0 °F 29.92 in Calm   6.0 mph 51% 0.00 in 0.00 W/m2
22:00 63.4 °F 44.5 °F 29.92 in ESE 6.0 mph 6.0 mph 50% 0.00 in 0.00 W/m2
22:05 63.4 °F 44.5 °F 29.92 in ESE 8.0 mph 8.0 mph 50% 0.00 in 0.00 W/m2
22:10 63.4 °F 44.5 °F 29.92 in East 2.0 mph 11.0 mph 50% 0.00 in 0.00 W/m2
22:15 63.3 °F 44.4 °F 29.92 in East 2.0 mph 9.0 mph 50% 0.00 in 0.00 W/m2
22:20 63.3 °F 44.4 °F 29.92 in East 2.0 mph 12.0 mph 50% 0.00 in 0.00 W/m2
22:25 63.2 °F 44.8 °F 29.92 in ESE 4.0 mph 11.0 mph 51% 0.00 in 0.00 W/m2
22:30 63.2 °F 44.3 °F 29.92 in East 4.0 mph 14.0 mph 50% 0.00 in 0.00 W/m2
22:31 63.2 °F 44.8 °F 29.92 in Calm     51% 0.00 in 0.00 W/m2
22:41 63.1 °F 44.2 °F 29.92 in ESE 8.0 mph 8.0 mph 50% 0.00 in 0.00 W/m2
22:46 63.1 °F 44.2 °F 29.92 in East 4.0 mph 6.0 mph 50% 0.00 in 0.00 W/m2
22:51 63.0 °F 44.1 °F 29.92 in East 8.0 mph 8.0 mph 50% 0.00 in 0.00 W/m2
22:56 63.0 °F 44.6 °F 29.92 in ESE 2.0 mph 6.0 mph 51% 0.00 in 0.00 W/m2
23:01 62.9 °F 44.5 °F 29.92 in ESE 2.0 mph 7.0 mph 51% 0.00 in 0.00 W/m2
23:06 62.8 °F 44.4 °F 29.92 in ESE 5.0 mph 5.0 mph 51% 0.00 in 0.00 W/m2
23:11 62.7 °F 44.3 °F 29.92 in ESE 5.0 mph 8.0 mph 51% 0.00 in 0.00 W/m2
23:16 62.5 °F 44.2 °F 29.92 in Calm     51% 0.00 in 0.00 W/m2
23:21 62.4 °F 44.0 °F 29.92 in East 6.0 mph 11.0 mph 51% 0.00 in 0.00 W/m2
23:26 62.3 °F 44.0 °F 29.92 in ESE 4.0 mph 9.0 mph 51% 0.00 in 0.00 W/m2
23:31 62.2 °F 44.4 °F 29.91 in ESE 6.0 mph 8.0 mph 52% 0.00 in 0.00 W/m2
23:36 62.1 °F 44.3 °F 29.91 in ESE 7.0 mph 11.0 mph 52% 0.00 in 0.00 W/m2
23:41 62.0 °F 44.2 °F 29.91 in East 1.0 mph 6.0 mph 52% 0.00 in 0.00 W/m2
23:46 61.9 °F 44.1 °F 29.91 in East 2.0 mph 7.0 mph 52% 0.00 in 0.00 W/m2
23:51 61.8 °F 44.0 °F 29.91 in ESE 4.0 mph 6.0 mph 52% 0.00 in 0.00 W/m2
23:56 61.8 °F 44.0 °F 29.92 in ESE 4.0 mph 6.0 mph 52% 0.00 in 0.00 W/m2
Foresthill Weather
 WU-history PHP script courtesy of   Juneau County Weather.
powered by Cumulus v1.9.3 (1059)
Ambient Weather VWS v14.00
Top Contact Website Map Copyright © 2007 - 2018 Foresthillweather.com Never base important decisions on this or any weather information obtained from the Internet